This is the latest recevied weather packets stored in our database for station/object IW2NTF-3. If no packets are shown the sender has not sent any weather packets the latest 1 day(s).
| Time | Temp. | Humidity | Pressure | Rain* | Wind** | Luminosity | Snow |
|---|---|---|---|---|---|---|---|
| 1778079064 | 22.22° C | 50% | 1006.4 hPa | 0 mm | - | 577 W/m² | - |
| 1778078764 | 21.67° C | 53% | 1006.5 hPa | 0 mm | - | 649 W/m² | - |
| 1778077684 | 22.22° C | 56% | 1006.4 hPa | 0 mm | - | 724 W/m² | - |
| 1778076724 | 21.11° C | 61% | 1006.4 hPa | 0 mm | - | 763 W/m² | - |
| 1778076363 | 21.11° C | 69% | 1006.4 hPa | 0 mm | - | 851 W/m² | - |
| 1778076004 | 20.56° C | 71% | 1006.5 hPa | 0 mm | - | 877 W/m² | - |
| 1778075764 | 20° C | 72% | 1006.5 hPa | 0 mm | - | 232 W/m² | - |
| 1778075344 | 20° C | 73% | 1006.6 hPa | 0 mm | - | 181 W/m² | - |
| 1778074084 | 18.89° C | 74% | 1006.8 hPa | 0 mm | - | 141 W/m² | - |
| 1778073784 | 18.89° C | 74% | 1007 hPa | 0 mm | - | 195 W/m² | - |
| 1778072944 | 19.44° C | 76% | 1007 hPa | 0 mm | - | 258 W/m² | - |
| 1778070664 | 20° C | 74% | 1007.1 hPa | 0 mm | - | 675 W/m² | - |
| 1778068564 | 18.89° C | 75% | 1007.3 hPa | 0 mm | - | 1081 W/m² | - |
| 1778068504 | 18.89° C | 75% | 1007.3 hPa | 0 mm | - | 176 W/m² | - |
| 1778067424 | 18.89° C | 76% | 1007.5 hPa | 0 mm | - | 1158 W/m² | - |
| 1778066343 | 17.78° C | 78% | 1007.7 hPa | 0 mm | - | 248 W/m² | - |
| 1778065864 | 17.78° C | 79% | 1007.8 hPa | 0 mm | - | 388 W/m² | - |
| 1778065624 | 17.78° C | 80% | 1007.9 hPa | 0 mm | - | 468 W/m² | - |
| 1778063943 | 17.78° C | 79% | 1007.9 hPa | 0 mm | - | 387 W/m² | - |
| 1778063464 | 17.78° C | 79% | 1007.9 hPa | 0 mm | - | 510 W/m² | - |
| 1778063284 | 17.78° C | 80% | 1007.9 hPa | 0 mm | - | 786 W/m² | - |
| 1778063044 | 17.78° C | 80% | 1008 hPa | 0 mm | - | 786 W/m² | - |
| 1778062143 | 17.22° C | 81% | 1008 hPa | 0 mm | - | 427 W/m² | - |
| 1778061604 | 17.22° C | 81% | 1007.9 hPa | 0 mm | - | 427 W/m² | - |
| 1778060824 | 16.67° C | 83% | 1007.8 hPa | 0 mm | - | 436 W/m² | - |
* Rain latest hour (hover to see other rain measurements)
** Current wind speed in m/s (hover to see current wind gust speed)